Regional Weather Roundup
Issued by NWS

Home | Current Version | Previous Version | Graphics & Text | Print | Product List | Glossary Off
Versions: 1 2 3 4 5 6 7 8 9 10 11 12 13 14 15 16 17 18 19 20 21 22 23 24 25 26 27 28 29 30 31 32 33 34 35 36 37 38 39 40 41 42 43 44 45 46 47 48 49 50

000
ASUS43 KDTX 300001
RWRMI
MICHIGAN HOURLY REGIONAL WEATHER ROUNDUP
NATIONAL WEATHER SERVICE DETROIT/PONTIAC MI
800 PM EDT WED JUL 29 2015

NOTE: "FAIR" INDICATES FEW OR NO CLOUDS BELOW 12,000 FEET WITH NO
SIGNIFICANT WEATHER AND/OR OBSTRUCTION TO VISIBILITY.

MIZ047>049-052>055-059>063-066>070-074>076-081>083-300100-
SOUTHEAST LOWER MICHIGAN

CITY           SKY/WX    TMP DP  RH WIND       PRES   REMARKS
ADRIAN         PTCLDY    80  75  84 W3        29.92R
6HR MIN TEMP:  75; 6HR MAX TEMP:  90; 6HR PCP:  0.88;

ALMA           SUNNY     79  53  40 W7        29.89S
ANN ARBOR      PTCLDY    80  75  84 W7        29.90R
BAD AXE        PTCLDY    79  72  78 SW5       29.84S
6HR MIN TEMP:  75; 6HR MAX TEMP:  88;

CARO           CLEAR     80  64  59 SW7       29.85S
DETROIT CITY   MOCLDY    81  73  76 SW7       29.88F
6HR MIN TEMP:  76; 6HR MAX TEMP:  90; 6HR PCP:  0.23;

DETROIT        MOCLDY    82  73  74 S7        29.89S
6HR MIN TEMP:  75; 6HR MAX TEMP:  91; 6HR PCP:  0.35;

FLINT          CLEAR     83  58  42 W10       29.89R
6HR MIN TEMP:  80; 6HR MAX TEMP:  90; 6HR PCP:  0.16;

GROSSE ILE     MOCLDY    82  75  78 SW3       29.87F
HILLSDALE      CLEAR     80  60  50 NW10      29.95R
HOWELL         CLEAR     81  56  42 W10       29.91S

CITY           SKY/WX    TMP DP  RH WIND       PRES   REMARKS
JACKSON        CLEAR     78  61  55 W7        29.93S
6HR MIN TEMP:  78; 6HR MAX TEMP:  86; 6HR PCP:  0.02;

LAMBERTVILLE   MOCLDY    82  75  81 S3        29.91R
6HR MIN TEMP:  77; 6HR MAX TEMP:  91;

LANSING        CLEAR     81  54  39 W12       29.92R
6HR MIN TEMP:  81; 6HR MAX TEMP:  88;

LAPEER         FAIR      79  76  92 S3        29.87S
MASON          CLEAR     77  57  48 W10       29.92R
MONROE         MOCLDY    81  75  83 SW6       29.89R
6HR MIN TEMP:  76; 6HR MAX TEMP:  90; 6HR PCP:  0.02;

MT. CLEMENS    MOCLDY    80  75  84 SW8       29.85F
6HR MIN TEMP:  74; 6HR MAX TEMP:  89; 6HR PCP:  0.40;

PONTIAC        PTCLDY    80  74  81 SW7       29.88F
6HR MIN TEMP:  76; 6HR MAX TEMP:  91;

PORT HOPE        N/A     81  73  76 VRB6      29.80S
6HR MIN TEMP:  74; 6HR MAX TEMP:  89; 6HR PCP:  0.22;

PORT HURON     CLOUDY    75  75 100 SW3       29.86F
TRI CITIES     CLEAR     82  59  45 W12       29.86S
6HR MIN TEMP:  81; 6HR MAX TEMP:  89; 6HR PCP:  0.02;

MIDLAND        FAIR      83  53  34 W8        29.85R
6HR MIN TEMP:  82; 6HR MAX TEMP:  88;

TROY           PTCLDY    79  76  91 MISG      29.90S
SAGINAW HB     CLEAR     81  59  47 SW9       29.85S
$$
MIZ043>046-050>051-056>058-064>065-071>073-077>080-300100-
SOUTHWEST LOWER MICHIGAN

CITY           SKY/WX    TMP DP  RH WIND       PRES   REMARKS
BATTLE CREEK   SUNNY     80  58  46 W10       29.95S
6HR MIN TEMP:  80; 6HR MAX TEMP:  87;

BENTON HARBOR  SUNNY     79  59  50 W10       29.95S
6HR MIN TEMP:  79; 6HR MAX TEMP:  83;

BIG RAPIDS     SUNNY     78  49  36 W8        29.89S
6HR MIN TEMP:  78; 6HR MAX TEMP:  85;

COLDWATER      CLEAR     78  59  50 W7        29.95R
6HR MIN TEMP:  78; 6HR MAX TEMP:  87;

FREMONT        FAIR      80  49  33 W6G16     29.90S
HOLLAND        SUNNY     79  59  50 W10       29.93F
6HR MIN TEMP:  79; 6HR MAX TEMP:  83;

GRAND RAPIDS   MOSUNNY   82  51  34 W17G26    29.92S
6HR MIN TEMP:  82; 6HR MAX TEMP:  87;

IONIA          FAIR      81  52  37 W12       29.91S
KALAMAZOO      SUNNY     80  57  45 NW7       29.95S
6HR MIN TEMP:  80; 6HR MAX TEMP:  86;

LUDINGTON      SUNNY     78  63  59 SW9       29.88F
6HR MIN TEMP:  78; 6HR MAX TEMP:  81;

MARSHALL       CLEAR     79  57  46 W9        29.94R
MOUNT PLEASANT SUNNY     82  50  31 W12G18    29.88R
6HR MIN TEMP:  82; 6HR MAX TEMP:  91;

MUSKEGON       MOSUNNY   78  59  51 W10       29.91F
6HR MIN TEMP:  78; 6HR MAX TEMP:  84;

SOUTH HAVEN    SUNNY     78  62  58 W5        29.94F
$$
MIZ016>042-300100-
NORTHERN LOWER MICHIGAN

CITY           SKY/WX    TMP DP  RH WIND       PRES   REMARKS
ALPENA         CLEAR     84  50  30 W12G18    29.80R
6HR MIN TEMP:  84; 6HR MAX TEMP:  91; 6HR PCP: TRACE;

BEAVER ISLAND  CLOUDY    75  58  55 SW14G21   29.79S
6HR MIN TEMP:  74; 6HR MAX TEMP:  79;

BELLAIRE       SUNNY     82  50  33 SW6       29.83S
6HR MIN TEMP:  82; 6HR MAX TEMP:  86;

CADILLAC       SUNNY     79  52  38 SW12      29.89S
CHARLEVOIX     SUNNY     79  54  42 SW14G20   29.84S
6HR MIN TEMP:  79; 6HR MAX TEMP:  84;

FRANKFORT      SUNNY     76  61  59 SW6       29.85S
GAYLORD        SUNNY     80  49  33 W18G31    29.86R
6HR MIN TEMP:  80; 6HR MAX TEMP:  87;

GRAYLING       SUNNY     80  49  34 W12G18    29.87R
6HR MIN TEMP:  80; 6HR MAX TEMP:  88;

HARBOR SPRINGS SUNNY     77  57  49 SW13G18   29.81S
HOUGHTON LAKE  SUNNY     80  53  39 W15G23    29.87S
6HR MIN TEMP:  80; 6HR MAX TEMP:  86;

MANISTEE       SUNNY     79  55  44 W9G16     29.87S
OSCODA         CLEAR     86  53  31 W10G16    29.80R
PELLSTON       SUNNY     79  53  40 W9G22     29.81R
6HR MIN TEMP:  79; 6HR MAX TEMP:  85;

ROGERS CITY    SUNNY     81  51  35 W9        29.80S
TRAVERSE CITY  MOSUNNY   83  51  33 W13G24    29.82S
6HR MIN TEMP:  83; 6HR MAX TEMP:  88;

$$
MIZ007>008-015-300100-
EASTERN UPPER MICHIGAN

CITY           SKY/WX    TMP DP  RH WIND       PRES   REMARKS
KINROSS        MOSUNNY   70  54  56 N8        29.80R
6HR MIN TEMP:  70; 6HR MAX TEMP:  82;

MACKINAC ISLAN PTSUNNY   75  58  55 SW16G25   29.78S
MUNISING         N/A     72  59  63 CALM      29.79R
6HR MIN TEMP:  69; 6HR MAX TEMP:  87;

$$
MIZ004>006-011>014-085-300100-
CENTRAL UPPER MICHIGAN

CITY           SKY/WX    TMP DP  RH WIND       PRES   REMARKS
ESCANABA       CLOUDY    79  54  41 W12       29.80R
6HR MIN TEMP:  79; 6HR MAX TEMP:  86;

MENOMINEE      CLOUDY    79  54  41 W9G17     29.84R
6HR MIN TEMP:  79; 6HR MAX TEMP:  84;

SAWYER-GWINN   CLOUDY    73  54  49 W15       29.82S
$$
MIZ001>003-009>011-084-300100-
WESTERN UPPER MICHIGAN

CITY           SKY/WX    TMP DP  RH WIND       PRES   REMARKS
IRON MOUNTAIN  CLOUDY    77  55  46 W9        29.82S
6HR MIN TEMP:  77; 6HR MAX TEMP:  84;

HOUGHTON       CLOUDY    72  55  55 W28G38    29.74S
6HR MIN TEMP:  70; 6HR MAX TEMP:  73;

COPPER HARBOR    N/A     73  55  53 NW13G32   29.70F
6HR MIN TEMP:  72; 6HR MAX TEMP:  76;

IRONWOOD       CLOUDY    72  57  60 W10       29.79S
6HR MIN TEMP:  70; 6HR MAX TEMP:  73;

$$

ABBREVIATIONS USED IN REMARKS
   TC - TEMPERATURE IN CELSIUS
  WCI - WIND CHILL INDEX
   HX - HEAT INDEX
  VSB - VISIBILITY




USA.gov is the U.S. government's official web portal to all federal, state and local government web resources and services.